Weather in Zavodskaya Sloboda

Belarus     53°47′00″N   30°00′48″E
temp.,
°C
wind,
m/s
gust,
m/s
humid.,
%
clouds,
%
prec.,
mm/h
press.,
hPa
HPBL,
m
19 april, mon
mon1900:00+7ne5127970 0.0 1021639
03:00+4ne37935 0.0 1021178
06:00+3ne49955 0.0 1021234
09:00+7ene577533 0.0 1021687
12:00+11ene5760100 0.1 10201582
15:00+12ene786074 0.4 10191503
18:00+10ene5107397 0.2 1019741
21:00+8ene5118144 0.2 1019452
20 april, tue
tue2000:00+5ne369470 0.0 1019140
03:00+5ene4988100 0.0 1018350
06:00+5ne5989100 0.1 1016537
09:00+5ne5791100 0.2 1016907
12:00+6ene4689100 0.2 1015616
15:00+6ne5586100 0.3 1014642
18:00+6ne5683100 0.1 1013838
21:00+4nne4693100 0.1 1012475
21 april, wed
wed2100:00+4n4696100 0.0 1011405
03:00+4nnw3596100 0.0 1010592
06:00+4nw3592100 0.1 1009466
09:00+5wnw4586100 0.1 1009518
12:00+7wnw4666100 0.1 10091250
15:00+9w3557100 0.3 10081333
18:00+11wsw355682 0.2 10081360
21:00+7s487770 0.2 1009156
22 april, thu
thu2200:00+7ssw4108399 0.0 1010274
03:00+6ssw499328 0.1 1010235
06:00+4ssw359673 0.0 101089
09:00+9ssw467895 0.0 1011368
12:00+14sw685547 0.8 10111550
15:00+14wsw695290 1.0 10111932
18:00+13sw3762100 0.1 1012404
21:00+9s227339 0.1 101314
23 april, fri
fri2300:00+9ssw4980100 0.1 1013316
03:00+7ssw3896100 0.3 1012214
06:00+5nw3689100 0.0 1013265
09:00+6w2386100 0.3 1014558
12:00+4w3695100 3.1 1014553
15:00+3w3596100 7.9 1014342
18:00+6ssw4683100 0.4 1014668
21:00+4sw37915 0.8 1014159